Date,TemperatureHighF,TemperatureAvgF,TemperatureLowF,DewpointHighF,DewpointAvgF,DewpointLowF,HumidityHigh,HumidityAvg,HumidityLow,PressureMaxIn,PressureMinIn,WindSpeedMaxMPH,WindSpeedAvgMPH,GustSpeedMaxMPH,PrecipitationSumIn
2013-2-1,44,38,27,29,18,9,76,46,26,30.37,29.98,8,2,15,0.00
2013-2-2,46,33,23,37,22,10,96,68,24,30.39,30.09,6,1,11,0.07
2013-2-3,57,42,32,39,31,24,96,70,30,30.09,29.90,5,1,13,0.07
2013-2-4,50,38,29,31,26,23,84,64,38,30.15,30.03,4,1,8,0.01
2013-2-5,64,47,33,45,37,29,88,69,45,30.03,29.92,5,1,13,0.00
2013-2-12,56,50,46,45,42,34,93,76,44,30.01,29.90,3,0,6,0.17
2013-2-13,46,22,43,44,-29,-100,96,46,90,29.91,29.68,4,1,8,0.23
2013-2-14,-200,0,200,-100,-100,-100,0,0,100,30.07,29.89,0,0,0,0.01
2013-2-15,62,20,44,38,-50,-100,69,18,33,30.07,29.91,7,1,13,0.00
2013-2-16,44,38,28,34,27,14,91,65,48,30.06,29.85,6,2,12,0.03
2013-2-17,48,33,20,20,13,2,79,49,16,30.29,30.06,4,1,13,0.02
2013-2-18,56,40,24,27,22,16,84,53,28,30.39,30.22,6,2,14,0.00
2013-2-19,53,43,37,46,34,16,95,72,39,30.23,29.91,4,1,15,0.24
2013-2-20,57,41,25,27,19,-100,83,46,20,30.14,30.06,4,1,8,0.01
2013-2-21,59,45,32,39,20,13,79,40,20,30.23,30.08,7,2,13,0.05
2013-2-22,45,40,39,39,38,36,97,92,76,30.25,30.11,10,4,17,0.42
2013-2-23,46,42,39,44,41,38,97,95,92,30.14,29.87,4,2,12,0.37
2013-2-24,65,51,41,47,40,30,98,70,35,30.00,29.87,7,1,12,0.01
2013-2-25,48,44,37,33,29,26,84,55,49,30.14,29.98,10,5,19,0.01
2013-2-26,43,38,34,42,36,32,97,95,86,30.04,29.62,17,5,33,0.99
2013-2-27,58,47,36,40,37,34,96,70,50,29.83,29.68,7,2,17,0.01
2013-2-28,56,44,34,37,29,25,75,59,38,29.92,29.74,5,1,13,0.00